COSMOS 1275 DEB, 42109

Orbit data source: Space-Track

COSMOS 1275 DEB, 42109 is space debris in LEO originally from a launch on Thu, 04 Jun 1981 UTC launched from the Plesetsk Missile And Space Complex (PKMTR). Debris objects in space refer to the collection of defunct objects orbiting the Earth. Examples of debris include non-operational satellites, rocket bodies, and fragments generated from explosions, collisions, or faulty payload assembly.

Loading next visibility...
Identifier
42109, 1981-053PV
Orbit
LEO
Country
Flag of CISCIS
Related business
Manufacturer
Unknown
Mission
Spacecraft
Bus & Motor
Unknown
Mass
Unknown
Launch date (UTC)
1981-06-04 (45 years ago)
Launch vehicle
Unknown
Launch site
Plesetsk Missile And Space Complex (PKMTR)
Object type
Payload
Rocket body
Debris
Shape & HBR
Unknown shape, 0.1 m
Radar Cross Section
Small (<0.1 m²)

Expand to show TLE details & history
Last TLE update: 23 hours ago

TLE from 23 hours ago
0 COSMOS 1275 DEB
1 42109U 81053PV  26144.92348112  .00000059  00000-0  42484-4 0  9990
2 42109  82.9497 195.9626 0029819 153.2421  25.1016 13.78316439628895
Epoch: 2026-05-24T22:09Z
TLE epoch observation values (Epoch: 2026-05-24T22:09:48.768Z)
Latitude
1.39282°
Longitude
160.81935°
Altitude
952.765 km
Speed
7.385 km/s
True Right ascension
01h 03m 09s
True Declination
1° 23' 05"
Sunlit
Object was in daylight at epoch
Visualization orbit readout
Latitude
Unknown
Longitude
Unknown
Altitude
Unknown
Speed
Unknown
Apparent Right ascension
Unknown
Apparent Declination
Unknown
Sunlit
N/A
Visualization observer readout
Local Sidereal Time
06:27:51
Azimuth
Unknown
Elevation
Unknown
Doppler factor
Unknown
Orbital elements
Apogee altitude
988.911 km
Perigee altitude
945.106 km
Semi-major axis
7,345.145 km
Eccentricity
0.00298
Inclination
82.9497°
RAAN
195.9626°
Arg. of periapsis
153.2421°
True anomaly
25.24705°
Mean anomaly
25.1016°
Eccentric anomaly
25.17428°
Mean motion
3.4478 °/min
Orbital period
104.41 mins
BSTAR
0.000042484
Loading maneuver chart data...
Computing Atmospheric mass density...
Loading historical data...
Loading historical data...
Loading historical data...
Loading historical data...
Loading historical data...
Loading historical data...
Loading historical data...

Documentation

Showing up to 5 results
|